GW6043 Weather Reports


time (UTC)temp
F
wind
direction
speed
knots
gust
knots
rain 1hr
in
rain 24hr
in
rain mn
in
humidity
%
barometer
mb
20260505212540 81 256 4.3 5.2 0.00 0.00 0.00 39 1008.3
20260505212037 81 174 5.2 7.0 0.00 0.00 0.00 39 1008.3
20260505211534 81 171 4.3 6.1 0.00 0.00 0.00 40 1008.3
20260505211031 82 176 4.3 5.2 0.00 0.00 0.00 39 1008.2
20260505210528 82 228 5.2 6.1 0.00 0.00 0.00 39 1008.2
20260505210025 82 212 9.6 11.3 0.00 0.00 0.00 38 1008.1
20260505205523 82 182 7.0 8.7 0.00 0.00 0.00 38 1008.2
20260505205020 82 180 6.1 7.8 0.00 0.00 0.00 37 1008.1
20260505204518 82 150 11.3 13.9 0.00 0.00 0.00 37 1008.0
20260505204015 82 210 3.5 6.1 0.00 0.00 0.00 38 1008.4
20260505203511 82 125 6.1 8.7 0.00 0.00 0.00 37 1008.2
20260505203008 82 175 4.3 6.1 0.00 0.00 0.00 38 1008.3
20260505202504 83 171 5.2 7.0 0.00 0.00 0.00 39 1008.2
20260505202000 82 222 4.3 5.2 0.00 0.00 0.00 38 1008.3
20260505201457 83 171 7.0 7.8 0.00 0.00 0.00 39 1008.3
20260505200955 83 235 4.3 7.8 0.00 0.00 0.00 39 1008.3
20260505200453 82 244 3.5 4.3 0.00 0.00 0.00 39 1008.6
20260505195948 81 190 9.6 14.8 0.00 0.00 0.00 39 1008.6
20260505195445 82 197 8.7 13.0 0.00 0.00 0.00 40 1008.6
20260505194943 82 201 7.8 13.0 0.00 0.00 0.00 40 1008.5
20260505194440 82 191 9.6 13.0 0.00 0.00 0.00 38 1008.6
20260505193940 82 177 9.6 13.0 0.00 0.00 0.00 39 1008.6
20260505193438 82 180 6.1 11.3 0.00 0.00 0.00 40 1008.5
20260505192935 81 211 3.5 4.3 0.00 0.00 0.00 40 1009.0
20260505192433 83 180 7.0 9.6 0.00 0.00 0.00 40 1008.7
20260505191931 82 193 6.1 7.8 0.00 0.00 0.00 39 1008.7
20260505191430 82 258 9.6 13.0 0.00 0.00 0.00 39 1008.7
20260505190926 83 323 4.3 7.0 0.00 0.00 0.00 39 1008.8
20260505190421 81 189 4.3 5.2 0.00 0.00 0.00 41 1009.1
20260505185916 82 150 7.0 12.2 0.00 0.00 0.00 39 1009.2
20260505185414 82 188 5.2 6.1 0.00 0.00 0.00 39 1009.3
20260505184910 82 183 6.1 8.7 0.00 0.00 0.00 39 1009.4
20260505184407 82 169 2.6 5.2 0.00 0.00 0.00 40 1009.4
20260505183904 82 146 7.8 13.0 0.00 0.00 0.00 40 1009.3
20260505183401 82 188 7.0 8.7 0.00 0.00 0.00 39 1009.6
20260505182857 82 189 2.6 4.3 0.00 0.00 0.00 40 1009.5
20260505182355 81 190 4.3 6.1 0.00 0.00 0.00 40 1009.2
20260505181851 81 176 3.5 4.3 0.00 0.00 0.00 40 1009.7
20260505181348 80 198 4.3 6.1 0.00 0.00 0.00 40 1009.5
20260505180845 81 130 5.2 7.0 0.00 0.00 0.00 41 1009.6
20260505180341 82 156 3.5 4.3 0.00 0.00 0.00 40 1009.8
20260505175833 81 150 4.3 7.0 0.00 0.00 0.00 41 1009.6
20260505175329 81 173 5.2 7.8 0.00 0.00 0.00 40 1010.0
20260505174825 81 255 2.6 4.3 0.00 0.00 0.00 41 1009.9
20260505174323 82 276 3.5 4.3 0.00 0.00 0.00 40 1009.9
20260505173819 81 276 4.3 6.1 0.00 0.00 0.00 42 1010.0
20260505173315 80 179 3.5 6.1 0.00 0.00 0.00 42 1010.1
20260505172812 80 185 5.2 6.1 0.00 0.00 0.00 43 1010.1
20260505172309 82 148 7.8 13.9 0.00 0.00 0.00 41 1010.0
20260505171804 81 270 6.1 11.3 0.00 0.00 0.00 42 1010.1
20260505171302 80 200 3.5 5.2 0.00 0.00 0.00 42 1010.0
20260505170758 82 168 6.1 7.8 0.00 0.00 0.00 41 1010.2
20260505170255 81 178 7.0 7.8 0.00 0.00 0.00 42 1010.3
20260505165750 81 211 7.8 8.7 0.00 0.00 0.00 40 1010.4
20260505165246 79 270 4.3 6.1 0.00 0.00 0.00 44 1010.3
20260505164742 79 230 3.5 4.3 0.00 0.00 0.00 42 1010.3
20260505164239 79 244 3.5 6.1 0.00 0.00 0.00 42 1010.6
20260505163737 80 191 6.1 7.0 0.00 0.00 0.00 40 1010.6
20260505163236 79 240 8.7 11.3 0.00 0.00 0.00 41 1010.8
20260505162732 79 216 10.4 14.8 0.00 0.00 0.00 42 1010.6
20260505162229 79 251 6.1 13.9 0.00 0.00 0.00 43 1010.9
20260505161726 79 203 8.7 11.3 0.00 0.00 0.00 42 1010.8
20260505161224 79 233 6.1 7.0 0.00 0.00 0.00 43 1011.1
20260505160721 79 294 5.2 7.0 0.00 0.00 0.00 43 1010.9
20260505160219 78 177 7.8 14.8 0.00 0.00 0.00 43 1010.9
20260505153158 77 192 6.1 7.0 0.00 0.00 0.00 45 1011.2
20260505152654 78 313 7.0 9.6 0.00 0.00 0.00 47 1011.2
20260505152150 77 254 2.6 5.2 0.00 0.00 0.00 51 1011.1
20260505151646 76 206 3.5 5.2 0.00 0.00 0.00 51 1011.3
20260505151143 77 242 3.5 4.3 0.00 0.00 0.00 50 1011.2
20260505150639 76 211 7.8 13.0 0.00 0.00 0.00 51 1011.0
20260505150137 77 292 1.7 2.6 0.00 0.00 0.00 51 1011.3
20260505140605 72 238 9.6 12.2 0.00 0.00 0.00 54 1011.8
20260505125019 66 257 3.5 4.3 0.00 0.00 0.00 64 1012.2
20260505124515 66 276 0.9 1.7 0.00 0.00 0.00 65 1012.1
20260505124012 66 187 1.7 2.6 0.00 0.00 0.00 67 1012.3
20260505123508 65 161 2.6 2.6 0.00 0.00 0.00 66 1012.3
20260505123004 65 177 2.6 4.3 0.00 0.00 0.00 67 1012.3
20260505122501 64 13 0.0 0.9 0.00 0.00 0.00 68 1012.1
20260505121958 64 353 0.0 0.9 0.00 0.00 0.00 68 1012.5
20260505121455 64 238 0.9 1.7 0.00 0.00 0.00 68 1012.5
20260505120951 64 158 0.9 2.6 0.00 0.00 0.00 69 1012.2
20260505120447 64 265 0.9 1.7 0.00 0.00 0.00 68 1012.4
20260505115946 63 71 1.7 1.7 0.00 0.00 0.00 69 1012.4
20260505115443 63 9 0.9 1.7 0.00 0.00 0.00 69 1012.4
20260505114942 63 138 2.6 4.3 0.00 0.00 0.00 70 1012.2
20260505114437 63 329 0.0 0.0 0.00 0.00 0.00 71 1012.2
20260505113934 62 312 0.9 0.9 0.00 0.00 0.00 72 1012.2
20260505113430 61 315 0.0 0.9 0.00 0.00 0.00 73 1012.2
20260505112926 62 308 0.9 0.9 0.00 0.00 0.00 72 1012.0
20260505112424 63 323 0.0 0.0 0.00 0.00 0.00 70 1011.8
20260505111920 62 316 1.7 1.7 0.00 0.00 0.00 70 1012.0
20260505111415 62 330 0.0 0.9 0.00 0.00 0.00 72 1012.1
20260505110911 61 128 2.6 2.6 0.00 0.00 0.00 72 1011.9
20260505110408 60 136 3.5 5.2 0.00 0.00 0.00 73 1011.8
20260505101839 59 234 2.6 2.6 0.00 0.00 0.00 74 1011.4
20260505101334 57 218 3.5 5.2 0.00 0.00 0.00 76 1011.5
20260505100830 56 310 0.0 0.0 0.00 0.00 0.00 79 1011.5
20260505100327 56 328 0.0 0.0 0.00 0.00 0.00 79 1011.2
20260505095822 56 324 0.0 0.0 0.00 0.00 0.00 79 1011.4
20260505095320 57 330 0.0 0.0 0.00 0.00 0.00 78 1011.2
20260505094816 57 334 0.0 0.0 0.00 0.00 0.00 77 1011.3
20260505094313 58 48 0.9 0.9 0.00 0.00 0.00 77 1011.2
20260505093814 58 18 1.7 1.7 0.00 0.00 0.00 76 1011.2
20260505093312 57 0 0.0 0.0 0.00 0.00 0.00 77 1011.3
20260505092808 58 344 0.0 0.0 0.00 0.00 0.00 76 1011.1
20260505092307 58 325 0.0 0.0 0.00 0.00 0.00 76 1011.1
20260505091804 58 324 0.0 0.0 0.00 0.00 0.00 76 1011.0
20260505091302 58 301 0.0 0.0 0.00 0.00 0.00 75 1011.0
20260505090759 59 329 0.0 0.0 0.00 0.00 0.00 74 1011.0
20260505090257 60 262 1.7 1.7 0.00 0.00 0.00 73 1011.2
20260505085754 60 287 0.9 1.7 0.00 0.00 0.00 72 1011.2
20260505085252 60 281 0.9 0.9 0.00 0.00 0.00 73 1011.0
20260505084749 60 278 1.7 1.7 0.00 0.00 0.00 72 1011.0
20260505084249 60 310 1.7 1.7 0.00 0.00 0.00 72 1011.1
20260505083745 60 192 1.7 1.7 0.00 0.00 0.00 72 1011.0
20260505083242 60 233 0.9 0.9 0.00 0.00 0.00 72 1011.0
20260505082738 59 130 0.9 0.9 0.00 0.00 0.00 72 1011.3
20260505082236 59 292 0.9 0.9 0.00 0.00 0.00 73 1011.0
20260505081731 59 331 0.0 0.9 0.00 0.00 0.00 73 1011.0
20260505081229 59 46 0.9 0.9 0.00 0.00 0.00 73 1011.1
20260505080726 60 341 0.0 0.0 0.00 0.00 0.00 72 1011.1
20260505080221 60 319 0.0 0.0 0.00 0.00 0.00 72 1011.0
20260505075717 59 320 0.0 0.0 0.00 0.00 0.00 73 1011.0
20260505075214 60 320 0.0 0.0 0.00 0.00 0.00 72 1010.7
20260505074712 60 321 0.0 0.0 0.00 0.00 0.00 72 1010.7
20260505074209 60 322 0.0 0.0 0.00 0.00 0.00 71 1010.8
20260505073706 61 291 0.0 0.9 0.00 0.00 0.00 70 1010.7
20260505073204 62 246 0.9 0.9 0.00 0.00 0.00 69 1010.5
20260505072700 62 290 0.9 0.9 0.00 0.00 0.00 68 1010.6
20260505072156 62 258 0.9 0.9 0.00 0.00 0.00 68 1010.7
20260505071652 62 260 1.7 1.7 0.00 0.00 0.00 68 1010.5
20260505071150 62 294 0.0 0.9 0.00 0.00 0.00 67 1010.5
20260505070646 62 261 0.9 1.7 0.00 0.00 0.00 68 1010.5
20260505070143 63 304 0.9 0.9 0.00 0.00 0.00 67 1010.6
20260505065639 63 244 2.6 5.2 0.00 0.00 0.00 65 1010.6
20260505065136 63 242 3.5 4.3 0.00 0.00 0.00 66 1010.7
20260505064632 63 243 2.6 4.3 0.00 0.00 0.00 66 1010.5
20260505064131 63 238 1.7 1.7 0.00 0.00 0.00 66 1010.6
20260505063628 63 193 2.6 2.6 0.00 0.00 0.00 66 1010.5
20260505063124 63 222 3.5 5.2 0.00 0.00 0.00 65 1010.6
20260505062620 63 219 2.6 4.3 0.00 0.00 0.00 65 1010.6
20260505062118 63 304 0.9 1.7 0.00 0.00 0.00 65 1010.7
20260505061615 63 144 1.7 1.7 0.00 0.00 0.00 65 1011.0
20260505061113 64 263 0.9 0.9 0.00 0.00 0.00 65 1010.8
20260505060610 64 267 2.6 2.6 0.00 0.00 0.00 64 1010.9
20260505060107 64 207 1.7 2.6 0.00 0.00 0.00 64 1010.9
20260505055602 64 260 1.7 1.7 0.00 0.00 0.00 64 1010.9
20260505055059 64 238 1.7 1.7 0.00 0.00 0.00 64 1011.1
20260505054556 64 184 0.9 2.6 0.00 0.00 0.00 64 1010.9
20260505054054 64 207 1.7 1.7 0.00 0.00 0.00 64 1010.9
20260505053551 64 287 0.9 0.9 0.00 0.00 0.00 63 1010.8
20260505053048 64 286 1.7 1.7 0.00 0.00 0.00 63 1011.0
20260505052544 64 203 1.7 1.7 0.00 0.00 0.00 63 1010.8
20260505052042 64 180 1.7 1.7 0.00 0.00 0.00 63 1010.7
20260505051539 64 201 1.7 1.7 0.00 0.00 0.00 62 1011.0
20260505051037 64 183 1.7 1.7 0.00 0.00 0.00 63 1010.7
20260505050535 64 205 1.7 1.7 0.00 0.00 0.00 62 1011.1
20260505041503 64 213 1.7 1.7 0.00 0.00 0.00 61 1010.6
20260505041000 64 210 0.9 1.7 0.00 0.00 0.00 60 1010.6
20260505040457 64 326 0.9 0.9 0.00 0.00 0.00 60 1010.4
20260505035954 65 6 0.9 0.9 0.00 0.00 0.00 60 1010.5
20260505035450 65 230 0.0 0.9 0.00 0.00 0.00 59 1010.5
20260505034947 65 179 0.9 0.9 0.00 0.00 0.00 59 1010.5
20260505034444 65 163 2.6 2.6 0.00 0.00 0.00 59 1010.3
20260505033941 65 181 2.6 2.6 0.00 0.00 0.00 59 1010.6
20260505033437 65 209 1.7 1.7 0.00 0.00 0.00 59 1010.6
20260505032936 65 210 0.9 1.7 0.00 0.00 0.00 58 1010.4
20260505032433 65 220 1.7 2.6 0.00 0.00 0.00 57 1010.2
20260505031929 65 280 0.9 0.9 0.00 0.00 0.00 57 1010.4
20260505031426 65 250 0.9 0.9 0.00 0.00 0.00 57 1010.5
20260505030923 65 271 0.0 0.9 0.00 0.00 0.00 56 1010.6
20260505030419 66 323 0.9 0.9 0.00 0.00 0.00 55 1010.4
20260505025914 66 292 1.7 1.7 0.00 0.00 0.00 54 1010.5
20260505025412 66 254 1.7 1.7 0.00 0.00 0.00 54 1010.3
20260505024911 67 167 0.9 0.9 0.00 0.00 0.00 53 1010.5
20260505024408 66 304 0.9 0.9 0.00 0.00 0.00 53 1010.4
20260505023905 66 256 1.7 1.7 0.00 0.00 0.00 53 1010.2
20260505023402 66 305 0.0 0.0 0.00 0.00 0.00 54 1010.1
20260505022859 66 1 0.9 0.9 0.00 0.00 0.00 53 1010.0
20260505022356 66 297 0.0 0.0 0.00 0.00 0.00 53 1010.5
20260505021853 67 337 0.0 0.0 0.00 0.00 0.00 52 1010.2
20260505021349 68 340 0.0 0.0 0.00 0.00 0.00 51 1010.3
20260505020845 67 295 1.7 1.7 0.00 0.00 0.00 50 1010.1
20260505020341 68 339 0.9 0.9 0.00 0.00 0.00 50 1010.1
20260505015838 68 129 3.5 4.3 0.00 0.00 0.00 50 1010.0
20260505015335 68 170 1.7 1.7 0.00 0.00 0.00 50 1010.1
20260505014833 68 202 2.6 4.3 0.00 0.00 0.00 49 1010.2
20260505014330 68 132 0.9 1.7 0.00 0.00 0.00 50 1010.1
20260505013826 68 356 0.0 0.0 0.00 0.00 0.00 49 1010.0
20260505013323 68 200 2.6 2.6 0.00 0.00 0.00 49 1009.9
20260505012822 68 45 0.9 0.9 0.00 0.00 0.00 49 1009.8
20260505012319 68 111 2.6 2.6 0.00 0.00 0.00 48 1009.9
20260505011815 69 126 1.7 1.7 0.00 0.00 0.00 48 1010.2
20260505011312 69 196 0.0 1.7 0.00 0.00 0.00 48 1010.0
20260505010808 69 200 0.9 1.7 0.00 0.00 0.00 48 1010.0
20260505010304 69 134 1.7 1.7 0.00 0.00 0.00 47 1010.0
20260505005800 69 207 1.7 1.7 0.00 0.00 0.00 47 1009.8
20260505005257 69 187 1.7 1.7 0.00 0.00 0.00 47 1009.7
20260505004755 69 183 0.9 1.7 0.00 0.00 0.00 47 1009.8
20260505004250 69 182 0.9 1.7 0.00 0.00 0.00 47 1009.7
20260505003748 70 298 1.7 2.6 0.00 0.00 0.00 47 1009.7
20260505003246 70 23 0.9 1.7 0.00 0.00 0.00 46 1009.4
20260505002742 70 90 0.9 1.7 0.00 0.00 0.00 46 1009.4
20260505002239 70 332 0.9 0.9 0.00 0.00 0.00 46 1009.4
20260505001737 70 142 3.5 4.3 0.00 0.00 0.00 45 1009.4
20260505001234 70 175 1.7 1.7 0.00 0.00 0.00 45 1009.5
20260505000731 71 199 1.7 1.7 0.00 0.00 0.00 45 1009.3
20260505000229 71 180 1.7 1.7 0.00 0.00 0.00 45 1009.4
20260504235725 71 117 2.6 2.6 0.00 0.00 0.00 45 1009.3
20260504235221 71 317 1.7 2.6 0.00 0.00 0.00 44 1009.4
20260504234719 71 21 0.9 0.9 0.00 0.00 0.00 45 1009.4
20260504234216 71 219 1.7 2.6 0.00 0.00 0.00 44 1009.1
20260504233712 71 153 3.5 4.3 0.00 0.00 0.00 44 1009.2
20260504233208 72 217 5.2 6.1 0.00 0.00 0.00 43 1009.1
20260504232705 72 173 3.5 5.2 0.00 0.00 0.00 44 1009.3
20260504232202 72 232 3.5 5.2 0.00 0.00 0.00 43 1009.3
20260504231659 72 166 2.6 4.3 0.00 0.00 0.00 43 1009.2
20260504231155 72 260 4.3 5.2 0.00 0.00 0.00 43 1009.1
20260504230651 73 183 2.6 2.6 0.00 0.00 0.00 43 1009.4
20260504230150 73 213 5.2 7.0 0.00 0.00 0.00 43 1009.4
20260504225648 73 147 3.5 5.2 0.00 0.00 0.00 43 1009.4
20260504225144 73 197 4.3 7.0 0.00 0.00 0.00 44 1009.3
20260504224641 73 142 3.5 5.2 0.00 0.00 0.00 44 1009.5
20260504224138 73 179 3.5 5.2 0.00 0.00 0.00 43 1009.5
20260504223635 73 187 4.3 6.1 0.00 0.00 0.00 43 1009.2
20260504223131 73 153 5.2 6.1 0.00 0.00 0.00 43 1009.5
20260504222628 73 159 8.7 13.0 0.00 0.00 0.00 43 1009.4
20260504222125 73 220 4.3 7.0 0.00 0.00 0.00 42 1009.4
20260504221622 72 136 4.3 7.0 0.00 0.00 0.00 43 1009.5
20260504221119 72 148 2.6 2.6 0.00 0.00 0.00 43 1009.5
20260504220615 73 161 4.3 6.1 0.00 0.00 0.00 43 1009.5
20260504220113 73 216 5.2 7.0 0.00 0.00 0.00 42 1009.6
20260504215609 74 154 6.1 7.8 0.00 0.00 0.00 42 1009.4
20260504215107 74 142 4.3 5.2 0.00 0.00 0.00 41 1009.5
20260504214603 74 269 4.3 5.2 0.00 0.00 0.00 42 1009.6
20260504214059 74 191 4.3 7.8 0.00 0.00 0.00 41 1009.4
20260504213555 74 182 2.6 2.6 0.00 0.00 0.00 42 1009.7
20260504213053 73 172 4.3 7.8 0.00 0.00 0.00 41 1009.6